[[{"header":{"parameterUnit":"m.s-1","parameterCategory":1,"la1":30.2991,"la2":30.254,"lo1":-89.0895,"lo2":-89.0444,"dy":0.0017,"dx":0.0017,"nx":28,"ny":28,"refTime":"2024-04-29T09:00:00:Z","depth":0,"parameterNumber":2,"parameterNumberName":"U-component_of_WINDS"},"data":[0,0,0,0,0,0,0,0,0,0,0,0,0,0,0,0,0,0,0,0,0,0,0,0,0,0,0,0,0,0,0,0,0,0,0,0,0,0,0,0,0,0,0,0,0,0,0,0,0,0,0,0,0,0,0,0,0,0,-5.8544,-5.8545,0,-5.8643,-5.8644,-5.8645,-5.8633,-5.8631,-5.863,-5.8628,-5.8727,-5.8731,-5.8735,0,0,0,0,0,0,0,0,0,0,0,0,0,-5.8344,-5.8348,-5.8544,-5.8545,-5.8547,-5.8643,-5.8644,-5.8645,-5.8633,-5.8631,-5.8629,-5.8628,-5.8726,-5.873,-5.8735,0,0,0,0,0,0,0,0,0,0,0,0,0,-5.8436,-5.8349,-5.8544,-5.8552,-5.8554,-5.8642,-5.8644,-5.8646,-5.8634,-5.8631,-5.8629,-5.8627,-5.8724,-5.873,-5.8736,-5.8822,0,0,-5.8755,-5.8757,0,0,0,0,0,0,0,0,-5.8431,-5.8443,-5.855,-5.8552,-5.8554,-5.8623,-5.861,-5.8705,-5.8634,-5.8603,-5.8628,-5.8625,-5.8694,-5.8703,-5.8726,-5.8826,-5.8831,-5.8755,-5.8759,-5.8762,-5.8763,0,0,0,0,0,0,0,-5.8424,-5.8439,-5.8583,-5.8551,-5.8554,-5.8551,-5.8561,-5.8628,-5.8661,-5.8606,-5.8605,-5.8617,-5.8695,-5.872,-5.8728,-5.8832,-5.8755,-5.8761,-5.8764,-5.8767,-5.9008,-5.901,0,0,0,0,0,0,-5.8416,-5.8434,-5.858,-5.8586,-5.8485,-5.8556,-5.8568,-5.8603,-5.866,-5.8666,-5.8619,-5.8616,-5.8711,-5.8721,-5.8732,-5.8835,-5.8762,-5.8767,-5.8771,-5.9005,-5.9008,-5.9011,0,0,0,0,0,0,-5.8412,-5.8429,-5.8576,-5.851,-5.8528,-5.8562,-5.8602,-5.8606,-5.8632,-5.867,-5.8676,-5.8639,-5.871,-5.8723,-5.88,-5.8838,-5.877,-5.8776,-5.9002,-5.9006,-5.901,-5.9043,0,0,0,0,0,0,-5.8406,-5.8428,-5.8461,-5.8511,-5.8532,-5.8642,-5.8605,-5.861,-5.8643,-5.864,-5.869,-5.8696,-5.8709,-5.8791,-5.8806,-5.8846,-5.8781,-5.8998,-5.9004,-5.9008,-5.9038,-5.9047,-5.9055,0,0,0,0,0,-5.8399,-5.8466,-5.8462,-5.848,-5.8574,-5.8645,-5.8657,-5.867,-5.8646,-5.8679,-5.8704,-5.8695,-5.8833,-5.8798,-5.8815,-5.8858,-5.8996,-5.9002,-5.9008,-5.9034,-5.9046,-5.9055,0,0,0,0,0,0,-5.8418,-5.8472,-5.8469,-5.8554,-5.8595,-5.8642,-5.8684,-5.8681,-5.8729,-5.8724,-5.8739,-5.875,-5.8827,-5.8851,-5.8812,-5.8944,-5.8911,-5.8921,-5.8925,-5.8936,-5.8944,-5.8936,-5.8786,0,0,0,0,0,-5.8433,-5.8486,-5.853,-5.8601,-5.8622,-5.865,-5.8681,-5.8688,-5.8731,-5.8748,-5.8778,-5.8819,-5.8872,-5.8906,-5.8956,-5.9043,-5.9053,-5.9081,-5.9089,-5.9096,-5.9103,-5.915,-5.9163,-5.9031,-5.9031,-5.9031,0,0,-5.8462,-5.8498,-5.8531,-5.8606,-5.8638,-5.8693,-5.8664,-5.8723,-5.8763,-5.8756,-5.883,-5.8854,-5.8901,-5.8983,-5.9021,-5.9005,-5.9143,-5.9104,-5.9109,-5.9112,-5.9158,-5.917,-5.9181,-5.9035,-5.9034,-5.9034,0,0,-5.8543,-5.8577,-5.8639,-5.8673,-5.8723,-5.8741,-5.8756,-5.8805,-5.8821,-5.8896,-5.8892,-5.894,-5.9031,-5.9064,-5.9093,-5.919,-5.9182,-5.9206,-5.9249,-5.9295,-5.9305,-5.9314,-5.9347,-5.9359,-5.9214,-5.9214,-5.9214,0,-5.8573,-5.8655,-5.8671,-5.8731,-5.8763,-5.8762,-5.8824,-5.8856,-5.892,-5.8942,-5.8925,-5.9039,-5.907,-5.9159,-5.9183,-5.9207,-5.9224,-5.9198,-5.9302,-5.9312,-5.9321,-5.9352,-5.9365,-5.9216,-5.9216,-5.9216,-5.9215,0,-5.8689,-5.8746,-5.8791,-5.8853,-5.8891,-5.8952,-5.8977,-5.9014,-5.9019,-5.9039,-5.9115,-5.9154,-5.9212,-5.9234,-5.9239,-5.9325,-5.9313,-5.9299,-5.9265,-5.9335,-5.9365,-5.9377,-5.922,-5.9219,-5.9218,-5.9217,0,0,-5.8782,-5.8854,-5.8869,-5.8898,-5.8954,-5.8998,-5.906,-5.9118,-5.9148,-5.9194,-5.9244,-5.9322,-5.931,-5.9343,-5.9352,-5.9392,-5.9465,-5.9373,-5.9374,-5.9387,-5.956,-5.9568,-5.9582,-5.9462,-5.9465,-5.9467,-5.9556,0,-5.8867,-5.8975,-5.8992,-5.9087,-5.9139,-5.914,-5.9193,-5.9233,-5.9255,-5.9303,-5.9327,-5.9381,-5.9361,-5.9381,-5.9422,-5.9447,-5.9499,-5.9442,-5.9508,-5.951,-5.9493,-5.9598,-5.9607,-5.9689,-5.9568,-5.957,-5.9571,0,-5.8979,-5.9028,-5.9128,-5.9178,-5.9201,-5.9248,-5.9303,-5.9349,-5.9395,-5.9408,-5.9446,-5.9451,-5.9514,-5.9481,-5.9568,-5.9528,-5.9557,-5.9574,-5.9577,-5.9582,-5.9542,-5.9603,-5.9716,-5.9727,-5.959,-5.9588,-5.9587,0,-5.9034,-5.9125,-5.9197,-5.9221,-5.9282,-5.9315,-5.9341,-5.9385,-5.9419,-5.9468,-5.949,-5.9545,-5.9574,-5.9616,-5.9636,-5.961,-5.9721,-5.969,-5.9733,-5.9732,-5.9753,-5.9751,-5.9869,-5.9777,-5.9776,-5.9776,-5.9776,0,-5.9126,-5.9186,-5.9222,-5.9266,-5.9334,-5.9354,-5.9421,-5.9447,-5.9486,-5.9535,-5.954,-5.9585,-5.9609,-5.9658,-5.9675,-5.9743,-5.9757,-5.9769,-5.9772,-5.9767,-5.9765,-5.9783,-5.9777,-5.9779,-5.9779,-5.9778,-5.9777,0,-5.9197,-5.9224,-5.9302,-5.9353,-5.9367,-5.9415,-5.9459,-5.9502,-5.9524,-5.9586,-5.9601,-5.9636,-5.9695,-5.9719,-5.9791,-5.9802,-5.988,-5.988,-5.9864,-5.9865,-5.9905,-5.99,-6.0038,-6.0056,-5.9953,-5.9954,-5.9955,0,-5.9252,-5.9299,-5.9356,-5.9389,-5.9417,-5.947,-5.9505,-5.9527,-5.9563,-5.962,-5.9656,-5.9715,-5.9762,-5.9855,-5.9887,-5.9942,-5.9942,-5.9986,-5.9949,-5.9943,-5.994,-5.9935,-5.994,-5.9991,-5.9993,-5.9993,-5.9994,0,-5.9346,-5.9358,-5.9408,-5.9464,-5.9506,-5.955,-5.9594,-5.9621,-5.965,-5.969,-5.975,-5.9788,-5.9861,-5.9919,-5.9976,-6.0003,-6.0003,-6.0006,-6.0018,-6.0012,-6.0,-6.0005,-5.988,-6.0002,-6.0001,-6.0,-6.0,-6.0,-5.941,-5.9452,-5.9498,-5.9554,-5.959,-5.9631,-5.9673,-5.9702,-5.9752,-5.9814,-5.9825,-5.9888,-5.9934,-6.0011,-6.0041,-6.0091,-6.008,-6.0098,-6.0102,-6.0106,-6.0107,-5.9995,-6.0102,-6.0102,-6.0102,-6.0101,-6.0101,0,-5.9503,-5.9533,-5.9585,-5.9646,-5.9691,-5.9689,-5.9738,-5.9774,-5.9831,-5.9874,-5.9921,-5.999,-6.0047,-6.0084,-6.0141,-6.0174,-6.0176,-6.0188,-6.0184,-6.019,-6.0115,-6.0098,-6.0186,-6.0186,-6.0186,-6.0186,-6.0186,-6.0186,-5.9556,-5.9626,-5.9643,-5.9731,-5.9761,-5.9824,-5.9852,-5.989,-5.9924,-6.0001,-6.0048,-6.0073,-6.0114,-6.0174,-6.0226,-6.0235,-6.0255,-6.0268,-6.0277,-6.0205,-6.0196,-6.0187,-6.0171,-6.0273,-6.0273,-6.0347,-6.0348,-6.0349]},{"header":{"parameterUnit":"m.s-1","parameterCategory":1,"la1":30.2991,"la2":30.254,"lo1":-89.0895,"lo2":-89.0444,"dy":0.0017,"dx":0.0017,"nx":28,"ny":28,"refTime":"2024-04-29T09:00:00:Z","depth":0,"parameterNumber":3,"parameterNumberName":"V-component_of_WINDS"},"data":[0,0,0,0,0,0,0,0,0,0,0,0,0,0,0,0,0,0,0,0,0,0,0,0,0,0,0,0,0,0,0,0,0,0,0,0,0,0,0,0,0,0,0,0,0,0,0,0,0,0,0,0,0,0,0,0,0,0,6.0131,6.0131,0,6.0167,6.0168,6.0168,6.014,6.0139,6.0138,6.0137,6.017,6.0172,6.0174,0,0,0,0,0,0,0,0,0,0,0,0,0,6.0033,6.0035,6.0131,6.0131,6.0132,6.0167,6.0168,6.0168,6.0141,6.0139,6.0138,6.0136,6.0169,6.0172,6.0174,0,0,0,0,0,0,0,0,0,0,0,0,0,6.0073,6.0036,6.0131,6.0122,6.0122,6.0167,6.0168,6.0168,6.0141,6.0139,6.0137,6.0136,6.0169,6.0171,6.0174,6.0229,0,0,6.0184,6.0185,0,0,0,0,0,0,0,0,6.0071,6.0077,6.0123,6.0123,6.0123,6.0148,6.0145,6.0188,6.0141,6.0133,6.0137,6.0135,6.0164,6.0167,6.0178,6.023,6.0232,6.0184,6.0186,6.0187,6.0188,0,0,0,0,0,0,0,6.0068,6.0075,6.0145,6.0124,6.0123,6.0115,6.0119,6.0153,6.0158,6.0134,6.0132,6.0137,6.0163,6.0175,6.0178,6.0232,6.0184,6.0186,6.0188,6.0189,6.0332,6.0334,0,0,0,0,0,0,6.0067,6.0073,6.0144,6.0146,6.0092,6.0119,6.0123,6.0141,6.0158,6.0158,6.0139,6.0136,6.0171,6.0175,6.0179,6.0245,6.0187,6.019,6.0191,6.033,6.0333,6.0335,0,0,0,0,0,0,6.0065,6.0073,6.0142,6.0109,6.0117,6.0122,6.0143,6.0143,6.0155,6.0161,6.0161,6.015,6.0169,6.0175,6.0217,6.0245,6.0191,6.0194,6.0328,6.0331,6.0334,6.0376,0,0,0,0,0,0,6.0062,6.0073,6.0094,6.011,6.0119,6.0181,6.0145,6.0145,6.016,6.0157,6.0172,6.0172,6.0168,6.0213,6.022,6.0249,6.0196,6.0325,6.0329,6.0333,6.0372,6.038,6.0387,0,0,0,0,0,6.0059,6.0103,6.0095,6.0104,6.0146,6.0183,6.0188,6.0183,6.0163,6.0184,6.0188,6.0172,6.0241,6.0217,6.0225,6.0255,6.0323,6.0328,6.0332,6.0369,6.0378,6.0386,0,0,0,0,0,0,6.0089,6.0105,6.0097,6.0148,6.0165,6.0178,6.0204,6.0194,6.0215,6.0211,6.0203,6.0206,6.0251,6.0257,6.023,6.0309,6.0279,6.0285,6.0304,6.0313,6.032,6.0318,6.0199,0,0,0,0,0,6.0102,6.0132,6.0143,6.0188,6.0197,6.0199,6.0215,6.021,6.0226,6.0232,6.024,6.0255,6.028,6.0297,6.032,6.0373,6.0375,6.0397,6.0404,6.041,6.0416,6.0445,6.0455,6.0349,6.0349,6.0349,0,0,6.0129,6.0141,6.016,6.0194,6.0206,6.0236,6.0205,6.0237,6.0259,6.0237,6.0278,6.0284,6.03,6.0348,6.0369,6.0354,6.0446,6.0416,6.0421,6.0423,6.0451,6.0461,6.0469,6.0352,6.0352,6.0351,0,0,6.0193,6.0205,6.0244,6.0257,6.0277,6.0278,6.0288,6.0303,6.0307,6.0348,6.0333,6.0358,6.0401,6.0414,6.0426,6.0496,6.0482,6.0503,6.0542,6.057,6.0579,6.0586,6.0612,6.0621,6.0509,6.0509,6.0509,0,6.0223,6.0269,6.0265,6.0299,6.0315,6.0298,6.0337,6.0349,6.0375,6.0385,6.0368,6.0424,6.0433,6.0484,6.0502,6.0512,6.0522,6.0502,6.0578,6.0585,6.0592,6.0617,6.0626,6.0512,6.0511,6.0511,6.0511,0,6.0305,6.0337,6.0366,6.0393,6.0412,6.0448,6.0449,6.0468,6.0462,6.0465,6.0508,6.0519,6.0545,6.0556,6.055,6.0607,6.0597,6.0579,6.0549,6.0605,6.0628,6.0637,6.0515,6.0514,6.0514,6.0513,0,0,6.0389,6.0415,6.0426,6.0439,6.0459,6.0483,6.0519,6.0546,6.0563,6.0581,6.061,6.0648,6.0632,6.0646,6.0641,6.0665,6.0721,6.0645,6.0645,6.0659,6.0785,6.0799,6.081,6.0712,6.0714,6.0715,6.0784,0,6.0455,6.0519,6.0517,6.0576,6.0605,6.059,6.0621,6.0636,6.064,6.0665,6.0669,6.0696,6.0673,6.0681,6.0705,6.071,6.0747,6.0704,6.0739,6.074,6.0736,6.0822,6.0836,6.0901,6.0793,6.0795,6.0796,0,6.054,6.0564,6.0626,6.0644,6.0656,6.0684,6.071,6.0734,6.0751,6.0752,6.0768,6.0759,6.0794,6.0763,6.0811,6.0783,6.0796,6.0801,6.0803,6.0807,6.0772,6.0828,6.0922,6.0932,6.081,6.0808,6.0807,0,6.0596,6.0643,6.0687,6.0698,6.072,6.074,6.0749,6.0765,6.0782,6.0803,6.0814,6.0838,6.0852,6.0871,6.0869,6.0846,6.0918,6.0886,6.0919,6.092,6.0936,6.0935,6.1033,6.0944,6.0943,6.0943,6.0943,0,6.067,6.0709,6.0713,6.074,6.0783,6.078,6.0823,6.083,6.0844,6.0871,6.0858,6.0884,6.0879,6.0905,6.0903,6.0944,6.0949,6.0951,6.095,6.0953,6.0953,6.0962,6.0958,6.0946,6.0945,6.0945,6.0944,0,6.0741,6.0744,6.0792,6.0809,6.0814,6.0845,6.0859,6.0884,6.0888,6.0923,6.093,6.0935,6.0965,6.0964,6.0997,6.0996,6.1046,6.1039,6.1041,6.104,6.1074,6.1071,6.1182,6.1197,6.1097,6.1098,6.1099,0,6.0788,6.0818,6.0839,6.0858,6.0869,6.0899,6.0917,6.0914,6.0933,6.0955,6.0978,6.1006,6.1029,6.1077,6.1082,6.1108,6.1102,6.1139,6.1106,6.1108,6.1103,6.1102,6.1105,6.1146,6.1147,6.1148,6.1149,0,6.0872,6.0873,6.09,6.0929,6.0951,6.0972,6.0991,6.1007,6.1006,6.1028,6.1059,6.1077,6.1112,6.114,6.1165,6.1173,6.1161,6.1159,6.1169,6.1172,6.1172,6.1173,6.106,6.1157,6.1156,6.1155,6.1155,6.1155,6.0933,6.096,6.098,6.101,6.1025,6.1044,6.1069,6.1077,6.1103,6.1132,6.1129,6.1163,6.118,6.1212,6.1222,6.1249,6.1235,6.1248,6.1252,6.1255,6.126,6.1167,6.1253,6.1252,6.1252,6.1252,6.1252,0,6.1018,6.103,6.1059,6.1088,6.1112,6.11,6.1121,6.1142,6.1173,6.119,6.1214,6.1249,6.1277,6.1285,6.1312,6.1331,6.1327,6.1338,6.1337,6.134,6.1269,6.1259,6.1342,6.1342,6.1342,6.1342,6.1342,6.1342,6.1065,6.111,6.1113,6.1165,6.1176,6.1212,6.1225,6.1242,6.1256,6.1297,6.1321,6.1327,6.134,6.1368,6.1393,6.1394,6.1405,6.1419,6.1419,6.1353,6.1344,6.1336,6.1326,6.1421,6.1422,6.1487,6.1487,6.1488]}]]